Regional Weather Roundup
Issued by NWS Midland/Odessa, TX

Home | Current Version | Previous Version | Text Only | Print | Product List | Glossary On
Versions: 1 2 3 4 5 6 7 8 9 10 11 12 13 14 15 16 17 18 19 20 21 22 23 24 25 26 27 28 29 30 31 32 33 34 35 36 37 38 39 40 41 42 43 44 45 46 47 48 49 50
000
ASUS44 KMAF 241910
RWRMAF
MIDLAND AREA WEATHER ROUNDUP
NATIONAL WEATHER SERVICE MIDLAND TX
200 PM CDT MON JUL 24 2017

...IN SOUTHWEST TEXAS AND SOUTHEAST NEW MEXICO...

CITY           SKY/WX    TMP DP  RH WIND       PRES   REMARKS
ALPINE         CLOUDY    74  62  66 SE16G26   30.20R
ANDREWS        FAIR      92  61  36 S9        30.06F
ARTESIA        SUNNY     91  59  33 S9G17     30.05F
BIG SPRING     SUNNY     93  60  32 S9        30.04F
CARLSBAD       SUNNY     91  62  37 VRB6      30.02F
DRYDEN           N/A     93  65  39 SE7       29.99F
FORT STOCKTON  MOSUNNY   93  62  35 SE8       30.02F
GUAD PASS      CLOUDY    87  61  41 SW14      30.20F
HOBBS          MOSUNNY   90  57  33 S7        30.08F
MARFA          CLOUDY    82  60  47 S6        30.16F
MIDLAND AIRPK  SUNNY     92  60  33 SE7       30.04F
MIDLAND INTL   SUNNY     91  63  39 SE9       30.03F
ODESSA         SUNNY     91  65  41 SE12      30.05F
PECOS          SUNNY     93  62  34 CALM      29.99F
PRESIDIO       FAIR      91  61  36 S5        30.03F
SEMINOLE       SUNNY     90  60  36 SE9       30.07F
SNYDER         CLOUDY    94  62  34 SE10      30.02F
WINK           SUNNY     92  63  38 SE12      30.00F
$$
...OTHER STATIONS IN TEXAS...

CITY           SKY/WX    TMP DP  RH WIND       PRES   REMARKS
ABILENE        CLOUDY    84  67  56 S5        30.02F
AMARILLO       MOSUNNY   94  60  32 S10       30.05F
AUSTIN         PTSUNNY   98  68  37 S9        29.96F HX 103
BROWNSVILLE    MOSUNNY   91  74  57 SE22G30   29.96F HX 100
CORPUS CHRISTI MOSUNNY   94  73  50 S20G28    29.96S HX 103
DALLAS FTW     PTSUNNY   87  73  62 S8        29.97F
DEL RIO        SUNNY     96  65  35 SE8       29.93F
EL PASO        MOSUNNY   86  64  47 NE6       30.07F
HOUSTON INT    PTSUNNY   93  71  48 VRB5      29.99F HX 100
LUBBOCK        MOSUNNY   91  62  37 S10       30.05F
SAN ANGELO     MOSUNNY   98  62  30 VRB7      29.98F
SAN ANTONIO    MOSUNNY   96  63  33 S12       29.98F
WACO           CLOUDY    86  75  69 N6        29.99F
WICHITA FALLS  NOT AVBL
$$
...OTHER LOCATIONS IN NEW MEXICO...

CITY           SKY/WX    TMP DP  RH WIND       PRES   REMARKS
ALAMOGORDO     MOSUNNY   81  63  54 CALM      30.12F
ALBUQUERQUE    PTSUNNY   83  55  38 VRB3      30.17F
CANNON AFB     MOSUNNY   89  60  37 S10       30.11F
CLOVIS         SUNNY     88  60  38 S9        30.10F
HOLLOMAN AFB   MOSUNNY   87  63  43 S7        30.12F
ROSWELL        SUNNY     91  57  31 S6G17     30.05F
RUIDOSO        CLOUDY    73  54  49 S6        30.30S
SANTA FE       CLOUDY    80  51  36 VRB3      30.23F
TRUTH OR CONSE PTSUNNY   83  54  36 CALM      30.13F
TUCUMCARI      SUNNY     93  58  30 N7        30.05F
$$




USA.gov is the U.S. government's official web portal to all federal, state and local government web resources and services.